Regional Weather Roundup
Issued by NWS Little Rock, AR

Home | Current Version | Previous Version | Graphics & Text | Print | Product List | Glossary On
Versions: 1 2 3 4 5 6 7 8 9 10 11 12 13 14 15 16 17 18 19 20 21 22 23 24 25 26 27 28 29 30 31 32 33 34
000
ASUS44 KLZK 221815
RWRLZK

WEATHER ROUNDUP FOR ARKANSAS
NATIONAL WEATHER SERVICE LITTLE ROCK AR
100 PM CDT TUE MAY 22 2018

NOTE: "FAIR" INDICATES FEW OR NO CLOUDS BELOW 12,000 FEET WITH NO
SIGNIFICANT WEATHER AND/OR OBSTRUCTIONS TO VISIBILITY.

ARZ001-003-010-029-221900-
NORTHWEST ARKANSAS

CITY           SKY/WX    TMP DP  RH WIND       PRES   REMARKS
FAYETTEVILLE   MOSUNNY   85  66  53 N3        30.05F HX  87
6HR MIN TEMP:  62; 6HR MAX TEMP:  85;

FORT SMITH     MOSUNNY   87  69  54 CALM      30.01F HX  91
6HR MIN TEMP:  70; 6HR MAX TEMP:  88;

HARRISON       SUNNY     83  65  54 MISG      30.07F HX  85
6HR MIN TEMP:  63; 6HR MAX TEMP:  84;

BENTONVILLE    SUNNY     83  65  54 SW5       30.08F HX  85
6HR MIN TEMP:  68; 6HR MAX TEMP:  83;

ROGERS         MOSUNNY   85  65  51 SE5       30.07F HX  86
6HR MIN TEMP:  67; 6HR MAX TEMP:  85;

SILOAM SPGS    PTSUNNY   81  68  64 CALM      30.06F
6HR MIN TEMP:  65; 6HR MAX TEMP:  82;

HIGHFILL       PTSUNNY   83  64  52 N3        30.06F
6HR MIN TEMP:  64; 6HR MAX TEMP:  84;

SPRINGDALE     PTSUNNY   84  66  54 CALM      30.07F HX  86
$$

ARZ004-005-016-221900-
NORTH CENTRAL ARKANSAS

CITY           SKY/WX    TMP DP  RH WIND       PRES   REMARKS
BATESVILLE     MOSUNNY   85  70  60 S5        30.04F HX  89
6HR MIN TEMP:  65; 6HR MAX TEMP:  85;

FLIPPIN        SUNNY     84  68  58 NE7       30.05F HX  87
6HR MIN TEMP:  64; 6HR MAX TEMP:  84;

MTN HOME       MOSUNNY   82  67  60 E3        30.04F
6HR MIN TEMP:  66; 6HR MAX TEMP:  83;

$$

ARZ040-041-221900-
WEST CENTRAL ARKANSAS

CITY           SKY/WX    TMP DP  RH WIND       PRES   REMARKS
MENA           NOT AVBL
$$

ARZ009-017-025-026-028-221900-
NORTHEAST ARKANSAS

CITY           SKY/WX    TMP DP  RH WIND       PRES   REMARKS
CORNING        MOCLDY    84  70  61 W5        30.05S HX  88
JONESBORO      FAIR      85  73  67 S3        30.03F HX  91
6HR MIN TEMP:  71; 6HR MAX TEMP:  85;

NEWPORT        PTSUNNY   83  72  69 NE6       30.04F HX  88
6HR MIN TEMP:  69; 6HR MAX TEMP:  84;

WALNUT RIDGE     N/A     83  70  64 CALM      30.04F HX  87
6HR MIN TEMP:  69; 6HR MAX TEMP:  84;

BLYTHEVILLE    PTSUNNY   85  71  63 NE3       30.04F HX  90
6HR MIN TEMP:  72; 6HR MAX TEMP:  85;

NW BLYTHEVILLE PTSUNNY   84  70  61 N3        30.04F HX  88
$$

ARZ022-023-033-042-044-221900-
CENTRAL ARKANSAS

CITY           SKY/WX    TMP DP  RH WIND       PRES   REMARKS
LITTLE ROCK    PTSUNNY   77  68  73 N14       30.03F THUNDER
6HR MIN TEMP:  69; 6HR MAX TEMP:  84;

N LITTLE ROCK    N/A     72  69  90 SE6       30.00F
6HR MIN TEMP:  69; 6HR MAX TEMP:  81;

JACKSONVILLE   TSTM      82  70  65 CALM      30.03F HX  86
6HR MIN TEMP:  69; 6HR MAX TEMP:  84;

CONWAY         CLEAR     79  70  73 CALM      30.03F
SEARCY         PTSUNNY   85  71  63 W3        30.04F HX  90
6HR MIN TEMP:  68; 6HR MAX TEMP:  86;

HOT SPRINGS    CLOUDY    83  70  64 VRB3      30.04F HX  87
6HR MIN TEMP:  69; 6HR MAX TEMP:  83;

RUSSELLVILLE   CLOUDY    84  70  62 S8        30.02F HX  88
6HR MIN TEMP:  67; 6HR MAX TEMP:  84;

CLINTON        FAIR      84  70  61 VRB5      30.03F HX  88
$$

ARZ036-221900-
EAST ARKANSAS

CITY           SKY/WX    TMP DP  RH WIND       PRES   REMARKS
WEST MEMPHIS   FAIR      85  71  63 NE3       30.02F HX  90
6HR MIN TEMP:  72; 6HR MAX TEMP:  85;

$$

ARZ050-053-066-070-073-221900-
SOUTHWEST ARKANSAS

CITY           SKY/WX    TMP DP  RH WIND       PRES   REMARKS
ARKADELPHIA    FAIR      86  71  60 CALM      30.02F HX  91
6HR MIN TEMP:  69; 6HR MAX TEMP:  86;

CAMDEN         FAIR      88  68  51 CALM      30.02F HX  91
TEXARKANA      CLOUDY    85  69  58 VRB5      30.02F HX  89
6HR MIN TEMP:  68; 6HR MAX TEMP:  86;

EL DORADO      FAIR      87  71  58 CALM      30.02F HX  93
6HR MIN TEMP:  69; 6HR MAX TEMP:  88;

DE QUEEN       SUNNY     86  70  58 VRB3      29.99F HX  90
6HR MIN TEMP:  69; 6HR MAX TEMP:  88;

$$

ARZ056-057-069-221900-
SOUTHEAST ARKANSAS

CITY           SKY/WX    TMP DP  RH WIND       PRES   REMARKS
PINE BLUFF     FAIR      83  70  64 CALM      30.03F HX  87
6HR MIN TEMP:  69; 6HR MAX TEMP:  84;

STUTTGART      FAIR      83  69  62 VRB3      30.04F HX  86
6HR MIN TEMP:  71; 6HR MAX TEMP:  83;

MONTICELLO     FAIR      85  71  63 CALM      30.03F HX  90
6HR MIN TEMP:  69; 6HR MAX TEMP:  86;


$$






USA.gov is the U.S. government's official web portal to all federal, state and local government web resources and services.